Wind_Speed
8 8 7 8 9 11 13 15 16 16 16 15 15 14 13 12 10 7 5 3 1 1 2 4 5 6 5 5 4 3 3 3 3 3 3 3 4 5 6 6 7 7 7 6 6 6 5 5 5
7 7 6 7 9 11 13 14 16 16 15 15 15 14 13 13 11 8 6 4 2 2 3 4 5 6 7 6 5 4 4 3 3 2 2 2 3 4 5 6 6 6 6 6 5 5 5 5 4
6 5 6 7 8 10 12 13 15 16 16 16 16 14 14 13 11 9 7 5 3 3 4 4 5 6 7 7 7 6 5 4 3 2 1 1 2 4 4 5 6 6 6 5 5 5 5 4 4
3 4 4 5 7 9 10 12 14 15 16 16 16 15 14 13 11 10 9 6 4 4 4 5 6 7 8 8 8 7 6 5 4 2 1 0 2 3 4 5 5 6 6 5 5 5 4 4 3
3 3 3 5 5 7 9 11 12 14 15 16 15 15 15 14 12 11 9 7 6 5 5 6 6 8 9 9 9 8 7 6 5 4 3 2 2 2 4 5 5 5 5 5 5 4 4 3 3
3 3 3 4 4 6 8 11 12 14 15 16 16 16 15 14 14 12 10 8 6 5 5 6 7 8 9 10 10 9 9 7 6 5 4 3 2 2 4 5 5 5 5 5 5 4 4 3 3
4 4 3 3 3 5 7 10 11 13 14 15 16 16 16 16 15 14 12 9 8 6 6 6 7 9 10 10 10 10 9 8 7 6 5 4 3 2 3 4 5 5 5 5 5 4 3 3 3
5 5 5 5 5 5 7 9 11 12 14 14 15 16 16 18 17 16 13 12 9 7 6 6 6 9 10 10 9 10 10 9 9 7 6 5 4 3 3 4 4 4 5 6 5 4 3 3 2
7 6 6 7 7 7 8 10 11 12 12 14 16 16 16 18 17 16 15 13 11 9 7 7 7 9 11 11 10 10 11 10 9 8 6 5 4 4 4 3 4 4 5 5 5 4 3 3 2
8 8 8 8 9 10 11 11 11 11 11 13 15 16 16 18 17 18 16 13 11 9 8 8 8 9 11 12 11 11 11 11 10 9 7 6 5 4 4 4 4 4 4 4 4 4 3 2 2
10 10 10 10 11 11 12 12 11 12 11 12 14 15 17 18 19 18 17 15 12 10 9 10 10 11 12 12 12 11 12 12 12 10 9 8 6 5 5 4 4 3 4 4 3 3 3 2 2
11 12 11 11 12 12 13 12 11 12 12 12 13 15 17 18 19 19 19 16 13 11 10 10 10 11 11 12 12 13 13 13 13 11 10 9 7 6 5 5 5 4 3 3 2 2 2 2 1
10 11 11 11 12 13 12 12 12 12 12 13 14 15 17 18 19 20 18 15 12 9 8 9 10 12 13 13 13 13 14 14 13 12 11 10 8 7 6 5 5 4 3 2 2 1 2 2 1
10 10 10 11 13 14 14 12 12 12 12 13 14 16 17 19 20 20 18 14 12 8 7 9 10 12 12 12 13 14 15 15 14 13 12 10 9 8 7 6 5 4 3 2 2 2 2 2 1
11 10 10 12 13 14 14 12 11 12 12 14 14 16 18 19 20 20 17 14 12 10 10 10 10 12 11 12 13 15 16 16 15 14 13 11 10 8 7 6 5 4 3 3 2 2 2 2 1
12 12 11 12 14 14 14 12 13 13 13 14 14 16 18 19 20 19 17 14 13 10 8 8 9 11 11 11 14 16 17 17 16 15 14 13 11 9 8 7 6 5 4 3 2 1 1 1 1
14 13 12 13 15 16 15 14 13 14 14 14 15 16 17 18 19 18 16 13 11 9 6 7 8 10 11 13 14 16 17 17 17 16 15 14 12 11 9 9 7 6 5 3 2 2 2 2 1
15 14 13 15 17 17 16 15 15 15 15 15 15 16 17 18 19 17 15 14 10 7 4 5 7 10 12 14 14 15 16 17 17 16 15 14 13 12 10 9 8 7 6 4 3 3 3 3 2
17 15 14 16 18 18 18 17 16 16 16 16 16 16 17 18 19 17 15 12 8 6 3 3 6 9 12 13 14 14 15 17 17 17 15 15 14 13 11 10 9 8 7 6 5 4 4 3 3
17 16 16 17 19 20 19 19 17 17 17 16 16 17 18 18 18 15 15 11 6 4 2 3 5 8 11 12 14 15 14 15 16 16 15 14 15 14 12 11 10 9 8 7 6 5 5 3 2
18 17 17 19 20 21 21 18 17 17 17 16 15 17 18 17 16 13 13 9 5 3 2 2 5 8 9 11 13 14 13 12 14 14 14 14 14 14 13 12 11 11 9 8 7 6 5 4 3
18 18 19 20 21 21 21 19 16 17 16 15 16 16 16 15 13 12 9 6 3 1 1 2 5 7 8 10 12 13 11 12 14 14 14 14 13 13 14 13 12 11 11 10 9 8 7 6 5
18 20 20 20 21 20 20 19 15 15 14 14 15 15 13 11 11 10 8 4 2 2 2 3 5 6 8 10 12 12 12 12 13 14 14 14 14 14 15 15 13 13 12 11 10 10 9 8 7
19 20 20 20 20 19 17 16 14 13 13 13 12 12 11 10 9 8 7 4 2 2 2 2 4 6 8 9 10 10 11 12 13 14 14 14 14 14 15 15 14 14 13 12 11 11 10 10 9
20 20 21 20 19 17 15 15 12 11 12 11 10 11 10 9 8 8 7 5 3 1 2 2 3 5 7 9 9 9 10 10 13 14 14 14 14 14 15 15 15 15 14 13 13 13 12 12 11
20 19 19 18 16 15 14 13 11 10 10 9 9 9 8 7 8 7 6 5 3 1 2 2 3 4 6 8 10 10 10 11 12 14 15 15 15 16 16 15 15 15 15 15 14 15 14 14 14
21 19 18 18 16 15 15 13 10 9 9 9 8 8 7 6 7 7 6 5 4 3 3 2 3 4 5 7 9 11 12 12 13 15 15 15 15 16 16 16 16 16 17 17 17 17 16 16 16
22 20 19 18 16 16 14 12 10 9 9 9 8 7 7 6 7 6 6 4 4 4 4 4 4 5 6 7 9 11 12 13 14 15 16 16 16 16 17 17 17 17 18 18 18 18 18 18 18
21 21 20 19 17 16 15 12 10 10 10 9 7 7 7 7 7 7 7 6 5 5 5 5 6 6 6 7 9 10 12 14 15 16 16 16 17 17 17 17 17 18 18 19 19 19 20 20 20
22 21 20 19 18 17 15 12 11 10 10 10 8 8 8 7 7 8 8 7 6 6 6 6 6 7 7 8 9 11 12 13 14 16 16 16 17 17 18 18 19 20 20 20 20 21 21 22 23
Wind_Direction
57 58 57 62 60 58 56 56 51 46 41 36 32 30 27 24 19 14 10 5 333 275 247 228 222 216 213 207 198 179 159 136 121 107 86 51 29 16 11 11 8 5 5 6 8 10 14 20 27
56 57 54 54 56 54 53 51 48 44 38 32 27 23 20 17 14 6 0 354 326 271 253 237 225 218 216 213 211 202 190 165 150 127 102 46 19 10 8 7 5 2 1 3 4 4 6 13 22
57 60 52 48 52 51 47 45 45 42 35 30 23 16 14 11 9 1 354 346 328 284 254 233 224 219 214 215 214 207 201 189 176 172 134 38 10 7 4 4 3 360 360 1 0 360 0 6 13
41 39 36 36 45 49 46 42 41 40 33 27 20 12 9 6 3 1 354 345 323 291 259 231 227 222 217 216 214 206 201 197 195 208 225 309 353 0 360 360 357 356 357 357 354 354 353 357 2
11 11 15 21 36 41 38 35 35 34 33 26 18 9 3 2 0 354 348 339 323 292 264 239 228 223 218 215 212 209 205 204 209 217 232 261 312 345 353 353 350 349 350 349 347 348 346 348 350
343 342 346 9 20 20 22 26 25 24 23 20 13 7 359 357 353 346 338 331 318 294 259 238 233 225 216 213 214 213 209 210 216 223 229 248 284 326 342 345 342 342 344 342 341 342 340 342 339
310 315 314 320 332 359 7 13 15 16 16 15 11 3 356 353 349 343 337 328 311 292 259 239 233 227 216 214 215 218 215 213 214 221 230 242 260 297 326 333 332 335 338 337 335 333 332 332 330
303 298 295 299 305 331 348 355 1 8 13 12 8 2 356 351 348 342 334 327 315 297 266 241 231 224 219 214 217 220 217 212 214 221 231 246 256 277 305 318 322 326 331 330 329 324 322 322 316
300 295 299 299 299 314 332 341 348 357 3 6 6 1 354 348 344 339 331 324 313 300 275 247 234 225 221 218 219 221 217 213 215 221 228 240 247 267 281 294 302 312 320 323 324 318 313 310 300
299 298 299 297 299 308 321 329 334 343 354 0 1 356 349 345 341 337 330 321 311 294 270 250 236 228 220 217 218 217 216 213 213 219 225 233 245 255 262 274 285 297 312 318 318 314 309 306 286
300 296 299 297 300 306 311 318 323 333 346 353 354 349 345 341 337 337 330 320 308 287 265 255 235 227 223 218 218 217 214 213 213 217 221 231 241 244 251 264 272 287 303 311 314 313 307 295 276
302 301 300 298 301 303 307 311 317 328 337 343 346 341 339 338 334 335 330 322 309 287 269 252 235 225 222 217 212 212 214 213 213 214 219 228 234 238 248 257 260 272 288 300 304 302 301 292 274
303 303 302 298 294 294 297 305 315 322 327 333 337 335 336 336 334 334 332 327 313 293 267 240 228 221 218 216 211 211 210 210 212 213 218 223 228 234 241 248 255 260 269 274 280 293 287 282 256
297 296 293 291 287 289 295 302 309 315 319 325 328 332 335 334 334 332 329 322 314 293 260 242 226 217 219 217 213 210 211 210 210 214 217 219 223 229 233 243 244 245 251 249 260 275 269 260 229
286 283 280 280 283 288 293 299 304 311 316 320 323 328 329 331 333 332 326 318 309 288 267 242 221 217 214 216 211 210 210 210 209 214 215 218 222 229 230 231 228 229 239 242 248 249 243 235 215
280 275 270 272 276 284 293 294 298 307 313 319 322 326 328 332 332 332 325 312 304 292 270 242 216 213 215 214 207 207 207 209 209 212 216 219 224 225 223 222 220 220 225 227 222 202 194 204 199
275 271 266 267 272 280 289 293 295 303 312 319 322 325 328 331 333 333 328 319 309 297 273 238 218 213 213 209 207 205 206 207 208 211 214 216 217 217 222 220 216 216 216 212 198 173 166 166 146
272 269 266 265 271 277 285 292 295 300 309 318 321 325 328 331 333 333 331 325 321 312 282 233 213 210 208 204 200 202 205 205 208 210 210 210 213 216 220 217 215 211 207 206 199 183 173 164 145
271 269 264 263 270 277 283 288 294 300 307 315 318 323 327 329 329 329 328 327 314 302 275 217 206 203 197 199 199 201 202 205 206 207 208 211 211 212 215 214 212 211 207 206 205 191 181 171 156
270 267 265 265 271 278 283 285 290 298 306 310 315 320 323 326 325 326 329 329 325 305 266 215 200 200 198 199 199 198 199 203 204 206 208 208 210 211 212 212 212 211 211 212 206 197 191 187 182
266 265 263 265 270 279 285 286 289 297 304 309 315 317 317 321 322 324 329 331 324 291 243 203 195 197 197 198 198 197 197 202 206 208 207 208 211 214 212 209 210 213 213 212 209 202 204 206 206
261 262 263 267 272 277 286 289 292 296 303 311 315 315 313 314 316 325 332 334 327 281 236 209 198 188 192 195 198 194 198 207 208 209 208 207 211 213 210 209 211 214 213 213 211 211 215 221 227
258 260 265 270 274 279 284 291 299 299 303 310 313 314 311 308 312 321 330 330 319 254 235 200 190 191 193 196 200 200 203 206 208 209 210 211 211 210 210 212 215 217 218 218 218 222 226 231 237
254 258 264 269 273 277 285 290 297 299 304 309 313 314 304 305 311 316 323 322 308 262 201 182 189 194 196 194 196 202 205 207 209 211 211 212 213 212 213 215 218 220 222 225 228 229 232 237 242
253 258 263 267 271 277 280 284 293 294 304 307 310 315 304 299 306 313 309 311 309 255 170 169 186 197 200 202 201 202 208 211 212 212 212 213 216 217 217 218 220 223 225 229 234 237 240 244 247
250 254 259 264 269 271 273 278 285 290 306 312 313 314 308 306 310 316 310 294 286 248 213 198 197 207 210 211 211 213 217 215 214 214 216 218 220 222 223 222 224 227 229 233 237 242 247 249 251
243 248 253 258 264 267 271 276 275 282 292 303 312 310 311 310 312 317 317 290 270 260 243 242 230 229 227 225 223 223 221 221 222 220 222 224 225 227 228 227 229 233 235 237 242 247 250 251 253
239 241 245 254 260 266 270 273 274 277 285 291 297 308 311 308 307 304 302 283 266 259 253 255 253 247 247 239 231 230 229 229 227 227 227 228 230 232 231 232 235 238 240 242 247 250 251 252 255
237 240 246 251 257 263 267 270 271 275 284 286 288 297 309 301 299 298 291 283 287 272 261 264 267 262 259 253 240 238 236 232 230 231 229 230 232 232 234 236 238 242 244 248 251 253 253 255 258
234 239 244 249 256 262 266 267 269 272 280 285 288 297 300 304 306 305 296 289 282 273 256 263 271 265 264 263 254 247 244 238 237 235 232 233 234 236 237 240 243 246 248 253 254 257 259 259 261
Height
5875 5875 5876 5877 5877 5876 5874 5873 5871 5871 5871 5870 5869 5869 5869 5869 5869 5871 5869 5867 5867 5867 5867 5867 5868 5869 5870 5871 5872 5873 5875 5876 5877 5879 5880 5881 5881 5882 5882 5882 5883 5883 5882 5882 5882 5882 5882 5882 5882
5877 5877 5878 5878 5877 5876 5876 5874 5873 5872 5872 5871 5870 5869 5869 5868 5868 5868 5867 5866 5866 5866 5866 5867 5868 5868 5869 5870 5872 5873 5874 5875 5877 5878 5879 5880 5881 5881 5882 5882 5882 5882 5882 5882 5882 5882 5882 5882 5882
5878 5878 5879 5879 5878 5877 5877 5875 5874 5873 5872 5871 5870 5870 5869 5868 5868 5867 5867 5866 5866 5866 5866 5866 5867 5867 5868 5870 5871 5872 5873 5874 5876 5877 5879 5879 5880 5881 5881 5882 5882 5882 5882 5882 5882 5882 5882 5882 5882
5879 5880 5880 5880 5878 5878 5877 5876 5875 5874 5873 5872 5871 5870 5869 5868 5867 5867 5866 5865 5865 5865 5865 5865 5865 5866 5867 5868 5870 5871 5872 5874 5875 5877 5878 5879 5879 5880 5881 5881 5882 5882 5882 5882 5882 5882 5882 5882 5882
5880 5880 5880 5879 5878 5878 5877 5876 5875 5874 5873 5872 5871 5870 5869 5868 5866 5866 5865 5864 5863 5863 5863 5864 5864 5865 5866 5867 5869 5870 5871 5873 5874 5875 5877 5878 5879 5879 5880 5881 5881 5882 5882 5882 5882 5882 5882 5882 5882
5880 5880 5880 5879 5879 5878 5877 5876 5875 5874 5873 5872 5871 5870 5869 5867 5866 5865 5863 5863 5862 5862 5862 5862 5862 5863 5864 5866 5867 5869 5870 5872 5873 5875 5876 5877 5878 5879 5880 5880 5881 5881 5882 5882 5882 5882 5882 5882 5882
5881 5880 5880 5879 5878 5878 5878 5876 5875 5874 5873 5872 5871 5870 5868 5867 5865 5864 5862 5861 5860 5860 5860 5860 5860 5861 5862 5864 5866 5868 5869 5871 5872 5874 5875 5876 5877 5879 5879 5880 5880 5881 5881 5882 5881 5881 5881 5881 5882
5880 5880 5879 5879 5878 5878 5877 5876 5875 5874 5873 5872 5871 5870 5868 5866 5864 5862 5861 5860 5859 5858 5858 5859 5859 5860 5861 5862 5864 5866 5868 5870 5871 5873 5874 5876 5877 5878 5879 5880 5880 5881 5881 5881 5881 5881 5881 5881 5881
5879 5880 5879 5878 5878 5877 5876 5876 5875 5874 5873 5872 5870 5869 5867 5865 5863 5861 5860 5858 5857 5857 5856 5857 5857 5858 5859 5861 5863 5865 5866 5868 5870 5872 5874 5875 5876 5877 5878 5879 5880 5880 5881 5881 5880 5880 5881 5881 5881
5879 5879 5878 5878 5877 5876 5876 5875 5874 5873 5872 5871 5870 5868 5866 5864 5862 5860 5858 5857 5855 5854 5854 5854 5855 5856 5858 5860 5861 5863 5865 5867 5869 5871 5872 5874 5875 5877 5878 5879 5879 5880 5880 5880 5880 5880 5880 5881 5881
5877 5877 5877 5876 5876 5875 5875 5874 5873 5872 5871 5870 5869 5867 5865 5863 5861 5859 5856 5854 5852 5851 5851 5851 5852 5853 5855 5858 5859 5861 5863 5865 5867 5870 5871 5873 5874 5876 5877 5878 5879 5879 5880 5880 5880 5880 5880 5880 5880
5876 5876 5876 5875 5875 5874 5874 5873 5872 5872 5871 5869 5868 5866 5864 5862 5859 5856 5854 5851 5849 5848 5848 5849 5849 5851 5853 5855 5857 5859 5861 5863 5866 5868 5870 5872 5874 5875 5876 5877 5878 5879 5879 5880 5880 5880 5880 5880 5880
5875 5874 5874 5874 5873 5873 5873 5872 5871 5871 5869 5868 5866 5864 5863 5860 5857 5854 5851 5848 5846 5845 5845 5846 5846 5848 5850 5852 5854 5857 5859 5862 5864 5867 5869 5871 5873 5874 5875 5876 5877 5878 5879 5879 5879 5880 5880 5880 5880
5873 5873 5872 5872 5872 5871 5871 5871 5870 5869 5868 5866 5865 5863 5861 5858 5855 5851 5848 5846 5844 5843 5843 5843 5843 5845 5847 5849 5852 5854 5857 5860 5862 5865 5867 5869 5871 5873 5874 5875 5876 5877 5878 5879 5879 5879 5880 5880 5880
5871 5871 5871 5870 5870 5869 5870 5870 5868 5867 5866 5865 5863 5861 5859 5856 5852 5849 5846 5844 5842 5841 5840 5840 5841 5843 5844 5847 5849 5852 5855 5858 5860 5863 5866 5868 5870 5871 5873 5874 5876 5877 5877 5878 5879 5879 5879 5880 5880
5869 5869 5868 5868 5868 5867 5869 5868 5867 5866 5865 5863 5861 5859 5857 5853 5850 5846 5843 5840 5839 5837 5837 5838 5839 5841 5843 5845 5847 5850 5853 5856 5858 5861 5864 5866 5868 5870 5872 5873 5875 5876 5877 5878 5879 5879 5879 5879 5880
5866 5866 5866 5867 5866 5866 5866 5866 5866 5864 5863 5861 5859 5857 5854 5851 5848 5843 5840 5838 5837 5836 5835 5836 5837 5839 5841 5843 5846 5848 5851 5854 5856 5859 5862 5865 5867 5869 5871 5872 5874 5875 5876 5878 5878 5879 5879 5879 5880
5864 5864 5864 5864 5864 5864 5864 5864 5863 5862 5861 5859 5857 5855 5853 5849 5846 5842 5839 5837 5835 5834 5834 5835 5836 5838 5839 5841 5844 5847 5849 5852 5854 5857 5860 5863 5865 5867 5869 5871 5873 5874 5876 5877 5878 5878 5879 5879 5880
5861 5861 5862 5862 5861 5861 5861 5861 5861 5860 5858 5857 5855 5852 5850 5847 5844 5841 5837 5836 5834 5833 5834 5834 5835 5836 5838 5840 5842 5845 5848 5850 5853 5856 5858 5861 5864 5866 5868 5870 5872 5873 5875 5876 5877 5878 5879 5879 5880
5858 5859 5859 5859 5858 5858 5858 5858 5858 5857 5856 5854 5852 5850 5848 5845 5842 5839 5837 5834 5833 5833 5833 5833 5834 5836 5838 5839 5841 5843 5846 5849 5851 5854 5857 5859 5862 5865 5867 5869 5871 5873 5874 5875 5877 5878 5879 5879 5880
5855 5856 5856 5856 5855 5855 5855 5856 5855 5854 5853 5852 5850 5847 5845 5843 5841 5838 5835 5833 5833 5833 5832 5833 5834 5835 5837 5838 5840 5843 5846 5848 5850 5853 5855 5858 5860 5863 5865 5868 5870 5872 5873 5875 5876 5877 5878 5879 5880
5851 5852 5852 5852 5852 5852 5852 5852 5853 5851 5850 5849 5848 5845 5843 5841 5839 5837 5835 5833 5832 5833 5833 5833 5834 5835 5836 5838 5840 5842 5845 5847 5849 5851 5854 5856 5859 5861 5864 5866 5869 5871 5872 5874 5875 5876 5877 5878 5879
5848 5847 5848 5849 5849 5849 5849 5849 5850 5849 5848 5847 5845 5843 5841 5839 5838 5837 5835 5833 5833 5833 5833 5833 5834 5835 5836 5837 5839 5842 5844 5846 5848 5851 5853 5855 5857 5859 5862 5865 5867 5869 5871 5872 5874 5875 5876 5877 5878
5844 5844 5845 5846 5846 5847 5847 5847 5847 5846 5846 5845 5843 5841 5840 5839 5838 5837 5835 5834 5834 5833 5833 5834 5834 5835 5836 5837 5839 5840 5842 5844 5847 5849 5851 5854 5856 5858 5861 5863 5865 5868 5869 5871 5872 5874 5875 5876 5876
5840 5842 5842 5843 5843 5844 5844 5844 5846 5844 5844 5843 5841 5840 5839 5838 5837 5837 5836 5835 5834 5833 5833 5834 5834 5835 5836 5837 5838 5840 5842 5843 5846 5848 5850 5852 5854 5857 5859 5861 5863 5865 5867 5869 5870 5872 5873 5873 5874
5836 5838 5839 5840 5841 5841 5841 5841 5843 5842 5842 5841 5840 5839 5838 5837 5837 5836 5836 5835 5835 5834 5834 5834 5834 5835 5835 5836 5837 5839 5840 5842 5844 5846 5848 5850 5853 5855 5857 5859 5861 5863 5865 5866 5868 5869 5870 5871 5872
5831 5833 5836 5837 5837 5838 5838 5840 5840 5840 5840 5839 5839 5838 5837 5837 5837 5836 5835 5835 5834 5834 5834 5834 5834 5834 5834 5835 5836 5838 5839 5840 5842 5844 5846 5848 5850 5852 5854 5856 5858 5860 5862 5863 5865 5866 5867 5868 5869
5828 5830 5831 5833 5834 5835 5836 5837 5838 5838 5838 5838 5837 5837 5837 5836 5836 5836 5835 5834 5834 5833 5833 5833 5833 5833 5833 5834 5835 5836 5837 5838 5840 5842 5843 5845 5847 5849 5851 5853 5855 5856 5858 5860 5861 5862 5863 5864 5865
5824 5826 5827 5829 5831 5832 5833 5837 5836 5836 5836 5836 5836 5836 5836 5836 5836 5835 5835 5834 5833 5832 5832 5832 5832 5832 5832 5832 5833 5833 5834 5835 5837 5839 5840 5842 5844 5846 5848 5850 5851 5853 5854 5855 5856 5857 5858 5859 5860
5820 5822 5824 5826 5828 5829 5830 5835 5833 5833 5834 5834 5834 5834 5834 5834 5834 5834 5833 5832 5831 5830 5830 5830 5830 5830 5830 5830 5830 5831 5831 5832 5834 5836 5837 5839 5841 5843 5845 5846 5847 5849 5850 5851 5852 5853 5853 5854 5855